QPF
0.00 0.00 0.00 0.00 0.00 0.00 0.00 0.00 0.00 0.01 0.02 0.04 0.04 0.03 0.05 0.06 0.03 0.00 0.00 0.00 0.00 0.00 0.00 0.00 0.00 0.00 0.00 0.00 0.00 0.00 0.00 0.00 0.00 0.03 0.01 0.00 0.00 0.00 0.00 0.00 0.00 0.00 0.00 0.00 0.00 0.00 0.00
0.00 0.00 0.00 0.00 0.00 0.00 0.00 0.00 0.00 0.00 0.00 0.03 0.05 0.05 0.03 0.05 0.05 0.01 0.00 0.00 0.00 0.00 0.00 0.00 0.00 0.00 0.00 0.00 0.00 0.00 0.00 0.00 0.00 0.00 0.01 0.00 0.00 0.00 0.00 0.00 0.00 0.00 0.00 0.00 0.00 0.00 0.00
0.00 0.00 0.00 0.00 0.00 0.00 0.00 0.00 0.00 0.00 0.00 0.01 0.05 0.05 0.04 0.04 0.06 0.03 0.00 0.00 0.00 0.00 0.00 0.00 0.00 0.00 0.00 0.00 0.00 0.00 0.00 0.00 0.00 0.00 0.01 0.02 0.01 0.00 0.00 0.00 0.00 0.00 0.00 0.00 0.00 0.00 0.00
0.00 0.00 0.00 0.00 0.00 0.00 0.00 0.00 0.00 0.00 0.00 0.00 0.03 0.05 0.04 0.05 0.06 0.06 0.02 0.00 0.00 0.03 0.01 0.00 0.00 0.00 0.00 0.00 0.00 0.00 0.00 0.00 0.00 0.00 0.00 0.00 0.00 0.00 0.00 0.00 0.00 0.00 0.00 0.00 0.00 0.00 0.00
0.00 0.00 0.00 0.00 0.00 0.00 0.00 0.00 0.00 0.01 0.01 0.00 0.00 0.02 0.05 0.07 0.06 0.08 0.04 0.01 0.01 0.01 0.05 0.03 0.00 0.00 0.00 0.00 0.00 0.00 0.00 0.00 0.00 0.00 0.00 0.00 0.00 0.00 0.00 0.00 0.00 0.00 0.00 0.00 0.00 0.00 0.00
0.00 0.00 0.00 0.00 0.00 0.00 0.00 0.00 0.01 0.02 0.01 0.01 0.01 0.01 0.06 0.07 0.09 0.08 0.05 0.03 0.02 0.02 0.02 0.04 0.00 0.00 0.00 0.00 0.00 0.00 0.00 0.00 0.00 0.00 0.00 0.00 0.00 0.00 0.00 0.00 0.00 0.00 0.00 0.00 0.00 0.00 0.00
0.00 0.00 0.00 0.00 0.01 0.00 0.00 0.00 0.01 0.02 0.02 0.02 0.02 0.01 0.03 0.10 0.14 0.13 0.07 0.02 0.00 0.00 0.01 0.00 0.00 0.00 0.00 0.00 0.00 0.00 0.00 0.00 0.00 0.00 0.00 0.00 0.00 0.00 0.00 0.00 0.00 0.00 0.00 0.00 0.00 0.00 0.00
0.01 0.00 0.01 0.01 0.01 0.00 0.00 0.00 0.01 0.03 0.04 0.04 0.04 0.01 0.01 0.05 0.14 0.33 0.16 0.00 0.00 0.00 0.00 0.00 0.00 0.00 0.00 0.00 0.00 0.00 0.00 0.00 0.00 0.00 0.00 0.00 0.00 0.00 0.00 0.00 0.00 0.00 0.00 0.00 0.00 0.00 0.00
0.00 0.00 0.01 0.01 0.00 0.00 0.00 0.00 0.04 0.07 0.05 0.03 0.01 0.00 0.01 0.06 0.23 0.50 0.24 0.02 0.00 0.00 0.00 0.00 0.00 0.00 0.00 0.00 0.00 0.00 0.00 0.00 0.00 0.00 0.00 0.00 0.00 0.00 0.00 0.00 0.00 0.00 0.00 0.00 0.00 0.00 0.00
0.00 0.00 0.01 0.01 0.00 0.00 0.00 0.02 0.06 0.05 0.02 0.01 0.01 0.01 0.01 0.06 0.38 0.51 0.28 0.04 0.00 0.00 0.00 0.00 0.00 0.00 0.00 0.00 0.00 0.00 0.00 0.00 0.00 0.00 0.00 0.00 0.00 0.00 0.00 0.00 0.00 0.00 0.00 0.00 0.00 0.00 0.00
0.01 0.01 0.01 0.01 0.01 0.01 0.01 0.03 0.04 0.02 0.02 0.09 0.08 0.02 0.02 0.10 0.40 0.63 0.25 0.05 0.00 0.00 0.00 0.00 0.00 0.00 0.01 0.00 0.00 0.00 0.00 0.00 0.00 0.00 0.00 0.00 0.00 0.00 0.00 0.00 0.00 0.00 0.00 0.00 0.00 0.00 0.00
0.01 0.01 0.01 0.02 0.01 0.01 0.01 0.01 0.00 0.01 0.10 0.30 0.07 0.02 0.03 0.04 0.29 0.55 0.21 0.04 0.00 0.00 0.00 0.00 0.00 0.01 0.02 0.01 0.00 0.00 0.00 0.01 0.00 0.00 0.00 0.00 0.00 0.00 0.00 0.00 0.00 0.00 0.00 0.00 0.01 0.02 0.04
0.01 0.01 0.02 0.02 0.01 0.02 0.01 0.01 0.00 0.02 0.20 0.20 0.06 0.10 0.05 0.02 0.20 0.42 0.39 0.12 0.01 0.00 0.00 0.00 0.00 0.00 0.00 0.00 0.00 0.00 0.01 0.01 0.00 0.00 0.00 0.00 0.00 0.00 0.00 0.00 0.00 0.00 0.04 0.05 0.05 0.06 0.02
0.00 0.01 0.02 0.03 0.03 0.03 0.01 0.00 0.00 0.03 0.15 0.06 0.07 0.13 0.08 0.04 0.23 0.43 0.48 0.10 0.01 0.00 0.00 0.00 0.00 0.00 0.00 0.00 0.00 0.00 0.00 0.01 0.00 0.00 0.00 0.00 0.00 0.00 0.00 0.00 0.00 0.00 0.01 0.03 0.01 0.00 0.00
0.00 0.01 0.03 0.03 0.03 0.02 0.01 0.00 0.00 0.03 0.08 0.08 0.08 0.06 0.09 0.04 0.34 0.56 0.34 0.09 0.00 0.00 0.00 0.00 0.00 0.00 0.00 0.00 0.00 0.00 0.00 0.00 0.00 0.00 0.00 0.00 0.00 0.00 0.00 0.00 0.00 0.01 0.02 0.01 0.03 0.02 0.04
0.00 0.01 0.03 0.03 0.04 0.02 0.00 0.00 0.00 0.04 0.10 0.12 0.07 0.03 0.02 0.09 0.51 0.53 0.24 0.04 0.00 0.00 0.00 0.00 0.00 0.00 0.00 0.00 0.00 0.00 0.00 0.00 0.00 0.00 0.00 0.00 0.00 0.00 0.00 0.00 0.00 0.00 0.00 0.02 0.07 0.05 0.02
0.00 0.02 0.04 0.03 0.03 0.01 0.01 0.00 0.01 0.03 0.10 0.12 0.12 0.06 0.02 0.08 0.59 0.61 0.21 0.01 0.00 0.00 0.00 0.00 0.00 0.00 0.00 0.00 0.00 0.00 0.00 0.00 0.00 0.00 0.00 0.00 0.00 0.00 0.00 0.00 0.00 0.00 0.01 0.02 0.03 0.03 0.01
0.01 0.03 0.03 0.03 0.03 0.01 0.01 0.00 0.01 0.02 0.09 0.13 0.16 0.05 0.02 0.11 0.52 0.42 0.06 0.00 0.00 0.00 0.00 0.00 0.00 0.00 0.00 0.00 0.00 0.00 0.00 0.00 0.00 0.00 0.00 0.00 0.01 0.00 0.00 0.00 0.00 0.00 0.00 0.01 0.07 0.01 0.01
0.02 0.02 0.03 0.03 0.03 0.02 0.01 0.00 0.00 0.02 0.09 0.08 0.08 0.05 0.18 0.06 0.13 0.14 0.01 0.00 0.00 0.00 0.00 0.00 0.00 0.00 0.00 0.00 0.00 0.00 0.00 0.00 0.00 0.00 0.00 0.00 0.01 0.01 0.01 0.01 0.01 0.05 0.02 0.06 0.13 0.16 0.11
0.01 0.01 0.03 0.03 0.04 0.01 0.00 0.00 0.00 0.02 0.07 0.13 0.14 0.07 0.54 0.22 0.08 0.01 0.00 0.00 0.00 0.00 0.00 0.00 0.00 0.00 0.00 0.00 0.00 0.00 0.00 0.00 0.00 0.00 0.00 0.00 0.00 0.01 0.03 0.04 0.16 0.20 0.04 0.07 0.16 0.18 0.03
0.01 0.01 0.02 0.03 0.03 0.01 0.00 0.00 0.00 0.03 0.08 0.07 0.06 0.02 0.13 0.13 0.04 0.00 0.00 0.00 0.00 0.00 0.00 0.00 0.00 0.00 0.00 0.00 0.00 0.00 0.00 0.00 0.00 0.00 0.00 0.00 0.01 0.01 0.01 0.03 0.18 0.22 0.10 0.06 0.09 0.03 0.01
0.02 0.01 0.02 0.04 0.02 0.01 0.00 0.00 0.00 0.07 0.14 0.12 0.07 0.14 0.02 0.00 0.00 0.00 0.00 0.00 0.00 0.00 0.00 0.00 0.00 0.00 0.00 0.01 0.00 0.00 0.00 0.00 0.00 0.00 0.00 0.01 0.02 0.02 0.02 0.04 0.17 0.19 0.07 0.05 0.02 0.00 0.00
0.02 0.01 0.02 0.04 0.01 0.00 0.00 0.00 0.00 0.03 0.11 0.07 0.04 0.12 0.06 0.00 0.00 0.00 0.00 0.00 0.00 0.00 0.00 0.00 0.00 0.00 0.01 0.00 0.00 0.00 0.00 0.00 0.00 0.00 0.00 0.01 0.03 0.08 0.04 0.04 0.15 0.13 0.04 0.02 0.01 0.00 0.00
0.01 0.01 0.01 0.03 0.00 0.01 0.00 0.00 0.00 0.01 0.07 0.12 0.16 0.14 0.04 0.01 0.00 0.00 0.00 0.00 0.00 0.00 0.00 0.00 0.00 0.01 0.01 0.01 0.01 0.00 0.00 0.00 0.00 0.00 0.00 0.00 0.02 0.08 0.06 0.10 0.14 0.08 0.04 0.00 0.00 0.00 0.00
0.01 0.01 0.01 0.02 0.00 0.01 0.00 0.00 0.00 0.00 0.03 0.07 0.14 0.09 0.05 0.00 0.01 0.00 0.00 0.00 0.00 0.00 0.00 0.00 0.00 0.00 0.00 0.01 0.03 0.01 0.00 0.00 0.00 0.00 0.00 0.00 0.02 0.08 0.10 0.10 0.06 0.02 0.05 0.00 0.01 0.01 0.00
0.00 0.00 0.01 0.01 0.00 0.00 0.00 0.00 0.00 0.00 0.01 0.01 0.09 0.18 0.20 0.06 0.00 0.00 0.00 0.00 0.00 0.00 0.02 0.02 0.01 0.00 0.00 0.03 0.04 0.02 0.00 0.00 0.00 0.00 0.00 0.00 0.00 0.03 0.03 0.04 0.03 0.01 0.01 0.00 0.00 0.00 0.00
0.00 0.00 0.01 0.02 0.00 0.00 0.01 0.00 0.00 0.00 0.01 0.01 0.06 0.08 0.09 0.05 0.00 0.00 0.00 0.00 0.00 0.00 0.02 0.07 0.05 0.01 0.01 0.03 0.04 0.02 0.00 0.00 0.00 0.00 0.00 0.00 0.00 0.01 0.01 0.01 0.00 0.00 0.00 0.00 0.00 0.00 0.00
0.00 0.00 0.01 0.02 0.01 0.00 0.01 0.00 0.00 0.00 0.01 0.01 0.03 0.04 0.14 0.11 0.00 0.00 0.00 0.00 0.00 0.00 0.01 0.07 0.03 0.00 0.01 0.03 0.03 0.01 0.00 0.00 0.00 0.00 0.00 0.00 0.00 0.00 0.00 0.00 0.00 0.00 0.00 0.00 0.00 0.00 0.00
0.00 0.00 0.00 0.01 0.00 0.01 0.00 0.00 0.00 0.00 0.01 0.02 0.02 0.02 0.02 0.02 0.00 0.00 0.00 0.00 0.00 0.00 0.02 0.08 0.04 0.00 0.00 0.03 0.05 0.01 0.00 0.00 0.00 0.00 0.00 0.00 0.00 0.00 0.00 0.00 0.00 0.00 0.00 0.00 0.00 0.00 0.00
MSLP
1019.94 1019.46 1018.94 1018.43 1017.98 1017.49 1017.04 1016.75 1016.41 1016.06 1015.50 1014.69 1013.93 1013.41 1012.83 1012.59 1012.66 1012.99 1013.07 1013.25 1013.25 1013.94 1013.88 1013.95 1013.90 1013.73 1013.87 1013.85 1013.09 1012.57 1012.30 1012.39 1012.24 1012.68 1013.28 1013.78 1014.35 1014.67 1015.24 1015.42 1015.44 1015.41 1014.94 1014.61 1014.25 1014.05 1013.75
1019.75 1019.23 1018.92 1018.46 1017.87 1017.36 1016.93 1016.30 1016.20 1015.79 1015.24 1014.53 1013.67 1013.22 1012.83 1012.25 1012.10 1012.35 1012.61 1012.76 1013.05 1013.60 1013.67 1013.92 1013.87 1013.83 1014.01 1014.20 1012.72 1012.66 1012.37 1012.35 1012.37 1012.67 1013.19 1013.55 1014.09 1014.68 1015.26 1015.54 1015.65 1015.37 1015.15 1014.88 1014.40 1014.05 1013.70
1019.81 1019.27 1018.78 1018.30 1017.80 1017.31 1016.79 1016.39 1016.04 1015.61 1014.93 1014.33 1013.62 1013.14 1012.53 1012.07 1011.64 1011.87 1012.11 1012.28 1012.80 1013.30 1013.55 1013.77 1013.84 1013.92 1014.02 1013.11 1012.63 1012.65 1012.49 1012.55 1012.54 1012.62 1013.14 1013.75 1014.07 1014.67 1015.19 1015.66 1015.62 1015.50 1015.44 1014.81 1014.25 1013.85 1013.58
1019.95 1019.31 1018.68 1018.06 1017.60 1017.08 1016.52 1015.86 1015.64 1015.14 1014.43 1013.94 1013.37 1012.79 1012.31 1011.89 1011.42 1011.24 1011.56 1011.97 1012.42 1013.07 1013.39 1013.57 1013.74 1014.00 1013.46 1012.52 1012.57 1012.64 1012.69 1012.69 1012.84 1012.90 1013.18 1013.75 1014.30 1014.81 1015.24 1015.58 1015.59 1015.62 1015.50 1015.00 1014.05 1013.66 1013.30
1019.71 1019.14 1018.60 1017.93 1017.35 1016.93 1016.26 1015.64 1015.08 1014.83 1014.33 1013.55 1013.02 1012.37 1011.95 1011.51 1011.32 1010.86 1011.13 1011.85 1012.23 1012.84 1013.13 1013.35 1013.88 1014.13 1013.16 1012.25 1012.45 1012.39 1012.57 1012.81 1013.19 1013.47 1013.60 1013.91 1014.38 1015.00 1015.47 1015.78 1016.05 1015.66 1015.42 1015.14 1014.34 1013.53 1013.36
1019.48 1019.02 1018.16 1017.71 1017.32 1016.68 1015.96 1015.32 1014.76 1014.23 1013.81 1013.20 1012.56 1012.08 1011.69 1011.37 1010.93 1010.51 1010.65 1011.55 1012.27 1012.84 1013.25 1013.53 1013.86 1014.41 1012.95 1012.30 1012.10 1012.46 1012.61 1012.82 1013.40 1013.87 1014.25 1014.44 1014.81 1015.23 1015.57 1015.71 1015.69 1015.58 1015.61 1015.20 1014.62 1014.15 1013.73
1019.26 1018.63 1017.97 1017.38 1016.92 1016.22 1015.54 1014.77 1014.40 1013.71 1013.35 1012.84 1012.18 1011.72 1011.42 1010.94 1010.61 1010.19 1010.17 1011.56 1012.81 1013.43 1013.26 1012.74 1013.01 1012.93 1012.26 1012.12 1012.03 1012.70 1012.68 1013.06 1013.68 1014.19 1014.79 1015.00 1015.14 1015.03 1015.09 1015.39 1015.48 1015.64 1015.62 1015.27 1015.06 1014.59 1014.19
1018.72 1018.34 1017.61 1016.93 1016.27 1015.64 1015.01 1014.28 1013.81 1013.33 1012.94 1012.30 1011.88 1011.42 1010.96 1010.34 1009.93 1009.42 1009.02 1009.58 1009.64 1009.93 1012.26 1012.34 1012.80 1012.77 1012.43 1012.20 1012.33 1012.79 1012.82 1013.49 1013.99 1014.62 1015.10 1015.62 1015.06 1014.96 1015.25 1015.26 1015.53 1015.65 1015.59 1015.13 1014.98 1014.80 1014.42
1018.40 1017.65 1017.07 1016.47 1015.97 1015.19 1014.61 1013.96 1013.39 1012.96 1012.30 1011.65 1011.42 1011.02 1010.53 1009.88 1009.52 1009.37 1008.56 1008.52 1009.01 1009.29 1011.22 1012.15 1012.16 1012.29 1012.37 1012.42 1012.28 1012.51 1012.95 1013.44 1014.00 1014.68 1014.99 1015.01 1014.91 1014.66 1015.33 1015.59 1015.68 1015.65 1015.64 1015.68 1015.48 1015.13 1014.45
1018.09 1017.49 1016.80 1016.22 1015.66 1014.87 1014.18 1013.52 1013.08 1012.35 1011.53 1011.10 1010.73 1010.08 1009.53 1009.27 1009.60 1008.21 1008.48 1008.58 1008.55 1009.17 1011.44 1012.02 1012.10 1011.63 1011.95 1012.13 1012.27 1011.98 1012.44 1013.03 1013.90 1014.16 1014.68 1014.89 1014.71 1014.98 1015.36 1015.50 1015.73 1015.59 1015.54 1015.56 1015.59 1015.75 1014.61
1017.73 1017.10 1016.40 1015.78 1015.22 1014.53 1013.88 1013.09 1012.28 1011.41 1010.74 1010.29 1009.90 1008.67 1008.37 1008.56 1008.16 1007.87 1008.21 1008.45 1008.21 1009.51 1011.38 1011.74 1011.78 1011.45 1011.44 1011.98 1011.96 1012.20 1012.19 1012.59 1013.29 1013.80 1014.61 1014.49 1014.47 1014.73 1015.01 1014.94 1015.43 1015.19 1015.04 1015.28 1015.39 1015.30 1014.73
1017.27 1016.52 1015.92 1015.46 1014.80 1014.12 1013.51 1012.70 1011.82 1010.89 1010.25 1009.60 1008.27 1007.34 1007.36 1007.90 1007.78 1008.00 1007.84 1008.37 1008.23 1010.34 1010.80 1011.17 1011.29 1011.23 1011.53 1011.92 1011.88 1012.27 1012.33 1012.64 1013.08 1013.57 1013.87 1014.12 1014.23 1014.28 1014.26 1014.30 1014.59 1014.76 1015.13 1015.21 1015.14 1014.97 1013.38
1017.38 1016.51 1015.80 1015.14 1014.44 1013.76 1013.08 1012.28 1011.38 1010.40 1009.76 1008.69 1007.92 1006.99 1006.90 1007.26 1007.03 1007.16 1007.37 1008.28 1009.42 1009.61 1010.08 1010.78 1010.85 1010.96 1011.10 1011.60 1011.83 1012.09 1012.26 1012.69 1012.88 1013.58 1013.68 1013.69 1013.39 1013.55 1013.84 1014.22 1014.40 1014.62 1015.18 1014.92 1014.59 1013.80 1011.86
1017.11 1016.42 1015.51 1014.86 1014.14 1013.46 1012.73 1011.89 1011.03 1010.04 1009.22 1008.42 1007.69 1006.69 1006.50 1006.85 1006.25 1006.97 1007.28 1009.00 1009.00 1008.69 1009.35 1009.90 1010.32 1010.85 1011.20 1011.39 1011.71 1011.95 1012.31 1012.47 1012.77 1013.17 1013.68 1013.55 1013.22 1013.16 1013.35 1013.28 1013.36 1013.67 1013.91 1013.49 1012.78 1012.38 1011.49
1016.68 1016.05 1015.40 1014.63 1013.82 1013.17 1012.32 1011.57 1010.65 1009.84 1008.96 1007.93 1007.03 1006.55 1006.52 1006.53 1006.46 1007.05 1007.93 1008.25 1008.16 1007.95 1008.13 1009.15 1010.47 1010.84 1011.28 1011.55 1011.81 1011.90 1012.19 1012.14 1012.02 1012.69 1013.11 1013.46 1013.39 1013.10 1013.16 1013.24 1013.36 1013.41 1013.23 1012.76 1012.65 1011.89 1011.34
1016.41 1015.71 1015.14 1014.38 1013.63 1012.89 1012.15 1011.40 1010.47 1009.72 1008.62 1007.57 1007.11 1006.58 1006.31 1005.89 1005.80 1006.84 1007.69 1008.05 1007.89 1007.45 1007.62 1008.41 1009.26 1010.14 1010.67 1011.19 1011.84 1011.93 1012.11 1011.67 1011.71 1011.70 1012.18 1013.32 1013.64 1013.01 1013.04 1013.28 1012.92 1012.85 1012.74 1012.85 1012.58 1011.54 1009.94
1016.39 1015.60 1014.83 1014.16 1013.46 1012.70 1012.09 1011.19 1010.34 1009.40 1008.44 1007.41 1006.69 1006.41 1006.21 1005.97 1006.06 1007.83 1007.82 1007.84 1007.61 1007.48 1007.44 1008.05 1008.56 1009.49 1010.02 1010.69 1011.41 1011.76 1012.02 1011.60 1011.38 1011.70 1011.98 1013.00 1013.49 1013.24 1012.84 1012.07 1011.46 1012.26 1012.24 1012.04 1011.62 1010.87 1009.41
1016.16 1015.37 1014.64 1013.90 1013.36 1012.53 1012.05 1011.09 1010.28 1009.32 1008.30 1007.66 1007.03 1006.46 1006.11 1006.18 1007.32 1007.95 1007.81 1007.01 1007.21 1007.71 1007.69 1007.89 1008.17 1008.75 1009.59 1010.31 1011.07 1011.61 1011.71 1011.46 1011.13 1011.46 1012.26 1012.27 1012.83 1012.34 1011.19 1010.17 1010.09 1010.08 1009.83 1010.29 1010.21 1009.14 1008.50
1015.92 1015.15 1014.52 1013.75 1013.19 1012.50 1011.88 1011.03 1010.21 1009.33 1008.71 1007.95 1007.37 1006.45 1005.95 1005.88 1007.29 1007.82 1007.58 1007.32 1007.34 1007.85 1007.93 1007.93 1008.22 1008.47 1009.07 1009.99 1010.80 1011.06 1011.21 1010.61 1010.75 1011.08 1011.37 1011.79 1012.06 1011.91 1010.17 1009.94 1009.69 1009.45 1008.70 1008.82 1008.86 1008.78 1007.42
1015.77 1015.03 1014.40 1013.65 1012.95 1012.47 1011.80 1011.06 1010.29 1009.38 1008.46 1007.67 1007.53 1006.91 1006.84 1006.99 1007.13 1007.42 1007.24 1007.57 1007.88 1007.83 1007.89 1007.85 1008.17 1008.49 1009.09 1009.60 1010.03 1010.57 1010.78 1010.21 1010.35 1010.57 1010.79 1011.03 1011.08 1010.81 1009.66 1008.19 1008.46 1008.21 1007.91 1007.96 1008.35 1007.67 1006.07
1015.70 1014.94 1014.29 1013.52 1012.85 1012.36 1011.84 1011.22 1010.23 1009.45 1008.28 1007.43 1007.01 1007.17 1007.23 1007.53 1007.23 1006.85 1006.95 1007.19 1007.77 1008.04 1008.05 1008.07 1008.35 1008.49 1008.80 1009.31 1009.57 1009.91 1010.00 1010.04 1010.25 1010.25 1010.49 1010.81 1010.20 1009.95 1008.50 1007.52 1007.27 1006.83 1006.37 1006.51 1006.46 1005.87 1005.79
1015.54 1014.82 1014.14 1013.50 1012.82 1012.19 1011.76 1011.29 1010.75 1009.59 1008.65 1007.97 1007.83 1007.59 1007.53 1007.29 1007.04 1006.80 1007.09 1007.68 1007.83 1008.01 1007.91 1008.18 1008.17 1008.06 1008.56 1008.70 1008.79 1008.97 1009.10 1009.38 1009.31 1009.60 1010.03 1010.16 1009.48 1008.89 1006.67 1006.54 1005.85 1004.84 1004.53 1004.43 1004.69 1004.66 1004.47
1015.27 1014.65 1013.99 1013.48 1012.87 1012.41 1011.88 1011.31 1010.74 1010.08 1009.34 1008.97 1008.67 1008.20 1007.60 1007.27 1007.17 1007.15 1007.15 1007.58 1007.65 1007.75 1007.87 1007.63 1007.62 1007.87 1008.10 1007.91 1008.01 1008.18 1008.37 1008.52 1008.60 1008.80 1009.27 1009.40 1009.20 1008.54 1005.51 1005.07 1004.15 1003.52 1002.67 1002.45 1002.57 1003.32 1003.49
1014.95 1014.37 1013.79 1013.32 1012.80 1012.51 1012.12 1011.64 1010.98 1010.44 1010.08 1009.79 1009.26 1008.80 1007.69 1007.13 1006.88 1006.72 1006.84 1007.07 1007.21 1007.46 1007.52 1007.61 1007.64 1007.76 1007.67 1007.46 1007.60 1007.53 1007.52 1007.66 1007.96 1007.99 1008.40 1008.33 1008.55 1008.16 1006.00 1004.63 1003.14 1002.22 1001.66 1001.32 1001.54 1002.12 1002.32
1014.87 1014.24 1013.70 1013.24 1012.77 1012.18 1011.92 1011.35 1010.82 1010.43 1009.93 1009.63 1008.97 1008.57 1007.23 1006.83 1006.63 1006.52 1006.42 1006.77 1007.15 1007.44 1007.60 1007.58 1007.48 1007.42 1007.33 1007.57 1007.60 1007.31 1007.24 1007.42 1006.72 1006.74 1007.32 1007.54 1007.90 1007.25 1006.19 1004.46 1002.94 1001.77 1001.61 1001.28 1001.50 1001.13 1000.77
1014.76 1014.18 1013.77 1013.25 1012.79 1012.21 1011.66 1011.45 1010.86 1010.21 1009.49 1009.08 1008.56 1008.02 1007.50 1006.70 1006.34 1005.88 1006.17 1006.53 1006.99 1007.38 1007.66 1007.53 1007.45 1007.39 1007.38 1007.62 1007.71 1007.44 1007.48 1007.06 1006.88 1006.80 1006.71 1006.88 1007.10 1007.22 1006.19 1004.93 1003.19 1001.94 1001.34 1001.24 1001.14 1000.73 999.97
1014.60 1014.10 1013.67 1013.28 1012.67 1012.31 1011.70 1011.23 1010.82 1010.21 1009.71 1009.34 1008.64 1008.34 1007.77 1006.56 1005.49 1005.47 1005.58 1005.90 1006.26 1006.82 1007.28 1007.42 1007.49 1007.51 1007.56 1007.53 1007.58 1007.48 1007.41 1007.02 1006.85 1006.73 1006.84 1006.89 1006.81 1006.47 1005.85 1004.90 1003.12 1001.92 1001.55 1001.35 1001.28 1001.72 1000.85
1014.43 1014.06 1013.65 1013.29 1012.76 1012.28 1011.82 1011.12 1010.67 1010.24 1009.72 1009.51 1008.84 1008.37 1008.42 1006.88 1005.73 1005.23 1005.22 1005.68 1005.97 1006.29 1006.80 1007.49 1007.77 1007.65 1007.63 1007.57 1007.43 1007.15 1007.16 1006.81 1006.76 1006.30 1006.03 1005.91 1005.88 1005.63 1005.19 1004.71 1003.20 1002.04 1002.09 1002.13 1001.87 1001.30 1001.48
1014.32 1013.95 1013.52 1013.14 1012.84 1012.25 1011.90 1011.51 1011.09 1010.51 1010.00 1009.51 1008.98 1008.43 1008.12 1007.46 1006.22 1005.66 1005.35 1005.16 1005.04 1004.99 1005.90 1006.93 1007.20 1007.01 1007.13 1007.12 1006.96 1006.60 1006.61 1006.67 1006.52 1006.26 1005.54 1005.45 1004.77 1004.61 1004.46 1003.12 1002.01 1001.75 1001.86 1001.93 1002.09 1002.04 1002.23
Thickness
5523 5523 5526 5527 5526 5526 5526 5526 5527 5528 5530 5535 5540 5544 5548 5552 5552 5552 5553 5556 5562 5556 5561 5564 5568 5573 5575 5581 5590 5600 5605 5608 5614 5615 5612 5611 5609 5610 5606 5606 5609 5609 5617 5624 5629 5632 5637
5520 5520 5518 5518 5520 5521 5521 5521 5520 5520 5522 5527 5534 5537 5540 5545 5548 5549 5549 5552 5555 5552 5556 5557 5561 5565 5567 5561 5589 5594 5599 5602 5606 5608 5606 5608 5606 5604 5601 5601 5602 5607 5610 5614 5621 5626 5630
5512 5512 5511 5510 5511 5511 5512 5512 5510 5511 5513 5517 5521 5526 5531 5536 5542 5543 5546 5547 5548 5547 5549 5551 5555 5558 5557 5568 5581 5587 5591 5593 5597 5601 5599 5599 5601 5598 5596 5592 5597 5600 5600 5608 5615 5620 5622
5501 5501 5502 5502 5499 5498 5498 5500 5499 5499 5502 5504 5508 5514 5520 5526 5532 5538 5540 5541 5541 5540 5542 5546 5550 5552 5554 5570 5575 5580 5584 5587 5589 5592 5593 5592 5591 5589 5589 5589 5591 5592 5595 5598 5611 5614 5618
5496 5494 5492 5491 5488 5485 5482 5482 5481 5480 5481 5485 5491 5499 5506 5514 5521 5529 5531 5530 5532 5533 5536 5541 5543 5543 5551 5567 5569 5575 5578 5580 5579 5580 5583 5586 5583 5580 5580 5578 5575 5581 5583 5586 5598 5609 5611
5489 5484 5483 5477 5474 5473 5469 5462 5455 5450 5452 5460 5468 5476 5487 5498 5510 5519 5523 5521 5522 5524 5528 5533 5536 5535 5551 5563 5568 5568 5571 5574 5572 5571 5571 5572 5572 5571 5573 5572 5571 5572 5574 5580 5587 5597 5595
5480 5476 5473 5468 5460 5455 5450 5445 5435 5428 5423 5427 5441 5452 5465 5482 5495 5506 5513 5511 5508 5511 5520 5533 5537 5542 5554 5559 5563 5560 5565 5566 5565 5564 5557 5561 5565 5568 5571 5569 5571 5569 5569 5571 5574 5581 5582
5476 5470 5466 5461 5455 5446 5434 5423 5409 5403 5402 5406 5416 5429 5445 5466 5483 5502 5508 5516 5526 5533 5511 5523 5529 5536 5545 5552 5554 5554 5559 5556 5557 5551 5550 5553 5557 5566 5563 5570 5565 5564 5563 5570 5572 5569 5568
5469 5465 5458 5449 5440 5429 5413 5398 5389 5383 5386 5392 5400 5411 5427 5448 5468 5484 5501 5515 5521 5528 5511 5518 5525 5533 5537 5544 5549 5551 5552 5548 5548 5543 5544 5549 5559 5561 5554 5550 5553 5553 5549 5550 5553 5554 5561
5460 5453 5446 5435 5422 5409 5396 5384 5375 5374 5379 5385 5392 5402 5418 5435 5451 5482 5493 5505 5515 5518 5470 5509 5514 5525 5535 5541 5543 5552 5552 5550 5543 5548 5552 5551 5554 5547 5538 5540 5536 5537 5542 5541 5538 5531 5540
5453 5444 5434 5422 5407 5394 5384 5375 5373 5376 5382 5389 5389 5401 5413 5427 5454 5476 5488 5500 5508 5505 5463 5503 5509 5526 5531 5534 5542 5539 5547 5548 5540 5541 5538 5545 5539 5534 5536 5541 5527 5534 5537 5531 5527 5520 5522
5445 5436 5423 5408 5396 5383 5376 5371 5372 5377 5383 5387 5395 5403 5412 5423 5449 5468 5484 5492 5497 5473 5460 5501 5510 5519 5525 5529 5539 5534 5540 5542 5542 5541 5542 5536 5535 5537 5534 5533 5528 5526 5515 5514 5512 5511 5520
5434 5425 5412 5397 5385 5376 5370 5368 5371 5379 5380 5388 5392 5400 5411 5427 5452 5465 5478 5481 5472 5463 5501 5501 5511 5521 5530 5526 5533 5531 5533 5531 5536 5525 5530 5535 5541 5533 5529 5519 5512 5512 5497 5503 5498 5504 5524
5428 5416 5403 5389 5377 5369 5364 5365 5371 5378 5384 5389 5391 5401 5412 5427 5449 5461 5473 5462 5471 5494 5497 5513 5514 5517 5519 5527 5530 5531 5528 5530 5531 5526 5520 5518 5517 5526 5522 5520 5512 5502 5498 5502 5499 5496 5511
5424 5411 5395 5382 5372 5364 5360 5363 5370 5375 5382 5390 5394 5403 5412 5429 5445 5454 5458 5472 5479 5496 5512 5512 5508 5509 5509 5517 5520 5528 5525 5530 5535 5525 5524 5514 5517 5512 5511 5507 5510 5495 5490 5499 5489 5501 5487
5421 5407 5390 5375 5365 5359 5357 5360 5369 5374 5384 5390 5394 5406 5416 5432 5450 5457 5462 5478 5485 5504 5513 5511 5511 5512 5512 5515 5509 5518 5517 5524 5528 5531 5527 5505 5500 5506 5505 5499 5500 5493 5493 5480 5475 5477 5493
5416 5402 5387 5371 5361 5356 5354 5360 5368 5377 5386 5392 5405 5416 5424 5435 5450 5443 5470 5474 5486 5498 5509 5510 5512 5510 5516 5514 5511 5518 5507 5515 5518 5515 5520 5504 5500 5496 5495 5503 5507 5488 5481 5478 5475 5482 5487
5413 5399 5384 5369 5360 5357 5355 5362 5369 5380 5390 5396 5405 5421 5431 5441 5437 5439 5462 5483 5496 5490 5500 5508 5515 5518 5512 5508 5512 5512 5502 5504 5513 5511 5505 5511 5496 5493 5498 5520 5512 5508 5505 5495 5481 5494 5483
5413 5400 5384 5370 5362 5358 5358 5366 5373 5384 5390 5397 5409 5427 5440 5452 5449 5454 5472 5482 5489 5488 5494 5504 5506 5517 5517 5507 5502 5502 5500 5515 5512 5511 5507 5508 5496 5486 5505 5508 5505 5487 5496 5490 5477 5477 5481
5415 5402 5385 5372 5368 5361 5362 5371 5377 5387 5396 5408 5417 5431 5434 5447 5455 5465 5477 5478 5478 5489 5493 5504 5509 5512 5511 5514 5512 5504 5499 5517 5511 5513 5518 5513 5498 5488 5520 5530 5502 5492 5487 5481 5471 5476 5495
5412 5402 5388 5377 5373 5368 5368 5373 5383 5390 5405 5420 5433 5437 5441 5448 5460 5479 5487 5487 5478 5480 5491 5499 5502 5505 5514 5509 5513 5509 5502 5510 5508 5513 5511 5503 5506 5500 5512 5518 5510 5499 5502 5494 5489 5493 5485
5414 5406 5394 5382 5379 5377 5377 5379 5382 5396 5409 5423 5432 5442 5444 5450 5466 5483 5483 5475 5476 5482 5493 5493 5498 5511 5506 5511 5511 5511 5510 5509 5516 5507 5507 5507 5508 5508 5526 5523 5512 5513 5514 5511 5505 5504 5503
5417 5409 5400 5388 5384 5381 5382 5387 5395 5404 5416 5421 5426 5435 5449 5464 5468 5472 5474 5474 5481 5490 5491 5503 5506 5508 5508 5516 5520 5518 5518 5519 5520 5524 5514 5509 5503 5510 5538 5539 5531 5537 5539 5532 5529 5519 5515
5420 5413 5404 5394 5390 5389 5392 5395 5401 5409 5416 5422 5430 5436 5456 5471 5477 5482 5482 5488 5489 5490 5498 5501 5503 5505 5512 5516 5517 5520 5522 5524 5519 5519 5520 5523 5510 5509 5526 5532 5554 5550 5548 5548 5538 5537 5533
5421 5414 5405 5395 5394 5397 5400 5405 5410 5416 5420 5427 5437 5446 5467 5476 5482 5483 5487 5490 5491 5496 5497 5501 5505 5509 5512 5513 5516 5520 5518 5524 5530 5525 5521 5524 5525 5525 5535 5543 5555 5561 5553 5552 5539 5544 5551
5421 5414 5404 5396 5392 5397 5403 5408 5414 5422 5430 5436 5443 5453 5463 5480 5479 5493 5490 5490 5487 5490 5494 5498 5500 5502 5510 5510 5512 5522 5517 5525 5533 5534 5517 5526 5529 5524 5526 5541 5553 5566 5563 5561 5563 5568 5570
5421 5414 5405 5395 5390 5395 5401 5410 5417 5424 5430 5437 5446 5451 5462 5481 5492 5494 5497 5496 5497 5494 5496 5495 5498 5502 5502 5509 5513 5515 5516 5528 5528 5536 5530 5531 5529 5531 5534 5542 5552 5565 5563 5567 5572 5572 5568
5421 5414 5405 5396 5391 5393 5399 5410 5418 5425 5432 5437 5445 5453 5457 5478 5489 5498 5500 5493 5492 5494 5497 5492 5496 5497 5500 5505 5510 5515 5513 5516 5523 5528 5536 5539 5537 5538 5548 5543 5542 5567 5566 5570 5573 5571 5571
5420 5413 5406 5397 5389 5391 5395 5401 5410 5420 5428 5436 5445 5453 5459 5470 5484 5489 5496 5501 5507 5510 5502 5494 5500 5504 5504 5506 5510 5519 5517 5516 5515 5533 5533 5541 5549 5549 5544 5555 5571 5574 5571 5572 5565 5565 5568